SCP
1 0 0 0 0 0 0 0 0 0 1 1 1 1 1 0 0 0 0 0 0 1 1 1 2 2 2 1 2 2 2 2 2 2 2 2 2 2 2 2 2 2 2
1 1 0 0 0 0 0 0 0 1 1 0 0 0 0 0 0 0 0 0 0 0 1 1 1 2 2 2 2 2 2 2 2 2 2 2 2 2 1 1 2 2 2
1 1 0 0 0 0 0 0 0 1 1 0 0 0 0 0 0 0 0 0 0 0 0 1 1 1 2 2 2 2 2 2 2 2 2 2 2 2 1 1 2 2 2
1 1 0 0 0 0 0 0 0 1 1 0 0 0 0 0 0 0 0 0 0 0 0 0 1 1 1 2 2 2 2 2 2 2 2 2 2 1 2 2 2 2 2
2 1 1 0 0 0 0 0 0 0 1 0 0 0 0 0 0 0 0 0 0 0 0 0 0 1 1 1 2 2 2 2 2 2 2 2 2 2 2 2 2 2 2
2 1 1 0 0 0 0 0 0 0 0 0 0 0 0 0 0 0 0 0 0 0 0 0 0 0 1 1 1 1 2 2 2 2 2 2 2 1 2 2 2 2 2
2 1 1 0 0 0 0 0 0 0 0 0 0 0 0 0 0 0 0 0 0 0 0 0 0 0 0 0 1 1 1 2 2 2 2 2 2 1 1 2 2 2 1
1 1 1 0 0 0 0 0 0 0 0 0 0 0 0 0 0 0 0 0 0 0 0 0 0 1 1 0 0 0 1 1 2 2 2 2 2 2 1 1 2 2 1
1 1 1 1 0 0 0 0 0 0 0 0 0 0 0 0 0 0 0 0 0 0 0 0 0 1 1 0 0 0 0 1 1 2 2 2 2 2 2 2 2 2 1
1 1 1 1 0 0 0 0 0 0 0 0 0 0 0 0 0 0 0 0 0 0 0 0 0 0 1 0 0 0 0 0 1 1 2 2 2 2 2 2 2 2 1
1 1 1 1 0 0 0 0 0 0 0 0 0 0 0 0 0 0 0 0 0 0 0 0 0 0 0 0 0 0 0 0 1 1 1 1 2 2 3 2 2 2 1
1 1 1 1 0 0 0 0 0 0 0 0 0 0 0 0 0 0 0 0 0 0 0 0 0 0 0 0 0 0 0 0 1 1 1 1 1 2 2 2 2 1 1
1 1 1 1 1 0 0 0 0 0 0 0 0 0 0 0 0 0 0 0 0 0 0 0 0 0 0 0 0 0 0 0 0 1 1 1 1 1 2 2 2 1 1
1 1 1 1 1 0 0 0 0 0 0 0 0 0 0 0 0 0 0 0 0 0 0 0 0 0 0 0 0 0 0 0 0 0 0 0 1 1 1 1 1 1 1
1 1 1 1 1 0 0 0 0 0 0 0 0 0 0 0 0 0 0 0 0 0 0 0 0 0 0 0 0 0 0 0 0 0 0 0 0 0 0 1 1 1 1
1 1 1 1 1 0 0 0 0 0 0 0 0 0 0 0 0 0 0 0 0 0 0 0 0 0 0 0 0 0 0 0 0 0 0 0 0 0 0 0 0 1 1
1 1 1 1 1 0 0 0 0 0 0 0 0 0 0 0 0 0 0 0 0 0 0 0 0 0 0 0 0 0 0 0 0 0 0 0 0 0 0 0 0 0 0
0 0 0 0 1 0 0 0 0 0 0 0 0 0 0 0 0 0 0 0 0 0 0 0 0 0 0 0 0 0 0 0 0 0 0 0 0 0 0 0 0 0 0
0 0 0 0 0 0 0 0 0 0 0 0 0 0 0 0 0 0 0 0 0 0 0 0 0 0 0 0 0 0 0 0 0 0 0 0 0 0 0 0 0 0 0
0 0 0 0 0 0 0 0 0 0 0 0 0 0 0 0 0 0 0 0 0 0 0 0 0 0 0 0 0 0 0 0 0 0 0 0 0 0 0 0 0 0 0
0 0 0 0 0 0 0 0 0 0 0 0 0 0 0 0 0 0 0 0 0 0 0 0 0 0 0 0 0 0 0 0 0 0 0 0 0 0 0 0 0 0 0
0 0 0 0 0 0 0 0 0 0 0 0 0 0 0 0 0 0 0 0 0 0 0 0 0 0 0 0 0 0 0 0 0 0 0 0 0 0 0 0 0 0 0
0 0 0 0 0 0 0 0 0 0 0 0 0 0 0 0 0 0 0 0 0 0 0 0 0 0 0 0 0 0 0 0 0 0 0 0 0 0 0 0 0 0 0
0 0 0 0 0 0 0 0 0 0 0 0 0 0 0 0 0 0 0 0 0 0 0 0 0 0 0 0 0 0 0 0 0 0 0 0 0 0 0 0 0 0 0
0 0 0 0 0 0 0 0 0 0 0 0 0 0 0 0 0 0 0 0 0 0 0 0 0 0 0 0 0 0 0 0 0 0 0 0 0 0 0 0 0 0 0
0 0 0 0 0 0 0 0 0 0 0 0 0 0 0 0 0 0 0 0 0 0 0 0 0 0 0 0 0 0 0 0 0 0 0 0 0 0 0 0 0 0 0
Wind_Speed
2 2 2 2 2 2 2 2 2 2 3 3 2 2 3 3 3 2 3 7 9 10 11 12 12 13 13 13 12 11 12 13 14 13 13 13 14 15 15 14 14 13 12
1 1 1 2 2 2 1 1 2 2 2 2 3 3 3 3 3 3 3 5 8 10 11 12 13 13 14 14 13 12 13 14 14 14 13 13 13 14 15 15 15 14 13
0 0 1 1 2 2 2 2 2 1 2 2 3 3 3 3 4 4 4 3 4 7 10 12 13 14 14 14 14 14 13 13 15 15 14 13 14 13 14 14 15 15 14
0 0 1 1 2 1 1 1 2 2 2 2 3 3 3 3 4 4 4 4 3 4 7 11 13 14 15 15 15 14 14 14 15 15 15 15 14 14 14 15 14 14 14
1 1 1 1 2 1 1 2 2 2 2 3 3 3 3 3 4 5 4 4 4 4 4 7 11 13 15 15 15 15 15 15 15 16 15 15 15 15 15 15 16 15 14
1 1 1 2 1 1 2 2 2 2 2 3 4 4 4 4 4 4 4 4 4 5 5 5 6 8 12 14 15 16 16 16 15 16 16 15 15 16 15 16 15 15 15
2 1 2 2 1 1 2 3 2 2 2 2 2 3 4 4 4 3 3 3 4 5 5 5 4 4 5 11 14 15 17 17 16 16 16 15 15 15 16 16 16 15 15
3 2 2 2 2 2 2 3 2 2 2 1 1 2 4 4 3 3 3 4 5 4 5 6 5 6 5 4 8 13 16 17 17 17 16 15 16 16 15 15 16 15 15
3 3 3 3 3 3 3 4 3 3 3 2 2 2 2 4 4 3 4 4 4 4 5 5 7 6 7 5 6 9 14 16 18 17 17 15 16 16 16 15 15 15 14
4 4 4 4 4 4 4 5 4 4 3 3 3 3 4 3 3 5 3 3 5 5 5 6 6 7 7 6 8 11 14 16 18 18 17 16 16 16 16 15 15 14 13
5 5 5 5 5 5 6 6 5 5 4 5 4 3 3 4 5 5 7 5 5 4 5 5 5 6 7 7 7 10 14 15 16 17 16 15 16 16 16 15 15 13 11
4 5 5 5 6 5 6 6 6 7 6 6 5 4 4 4 4 5 7 7 7 6 5 5 5 6 6 6 9 13 14 14 15 15 15 15 15 16 16 16 14 13 11
4 6 6 6 6 6 7 6 7 7 7 7 7 6 6 6 5 5 6 7 8 7 5 5 5 5 6 6 7 12 12 13 13 14 14 13 13 13 14 14 13 12 10
6 6 6 7 7 7 7 6 6 7 7 7 8 8 6 6 5 6 6 6 8 8 6 7 4 5 5 5 8 11 8 13 13 13 13 12 11 11 11 11 10 10 9
6 7 6 7 7 8 8 7 6 7 7 8 8 8 7 6 6 6 6 6 7 9 10 6 4 5 5 5 8 6 7 11 13 13 12 11 10 9 8 8 8 7 7
7 7 7 7 7 8 8 7 7 7 8 8 6 8 8 6 6 6 6 6 7 8 10 6 6 6 6 6 9 6 7 12 12 12 10 9 7 7 7 6 6 6 6
7 7 8 7 8 8 8 8 8 8 9 9 8 9 10 8 7 6 6 6 7 6 10 9 6 6 6 6 6 5 5 5 5 9 8 7 6 6 6 5 6 6 5
7 8 8 8 8 8 8 8 9 9 9 10 9 9 10 8 9 7 6 7 7 7 8 11 8 5 6 5 5 4 4 4 3 6 6 5 5 5 6 5 5 5 5
8 7 7 8 8 8 8 9 9 10 10 10 10 10 10 9 9 8 8 8 7 7 6 7 8 5 4 3 3 2 2 2 2 1 2 3 3 4 4 5 5 5 4
7 8 8 8 8 9 9 9 9 10 10 10 10 10 10 10 10 9 8 8 7 7 6 7 7 5 4 2 1 1 2 1 1 2 2 2 4 4 4 5 4 4 4
7 7 8 8 8 7 8 9 9 10 10 10 9 9 9 11 13 10 8 7 7 6 5 6 6 5 3 2 2 1 1 1 2 1 2 2 2 2 2 3 3 3 4
7 7 7 8 8 8 12 15 12 9 9 9 9 9 9 10 12 14 15 14 11 9 7 6 5 5 5 3 2 1 1 0 1 1 2 2 2 1 1 1 2 3 3
7 8 8 8 9 10 16 16 16 10 9 9 9 8 7 7 9 8 10 13 12 14 13 8 7 7 5 4 3 2 2 0 1 0 2 1 2 1 1 1 2 3 4
7 7 8 8 9 11 16 16 15 9 8 8 8 8 8 8 8 8 6 7 7 6 7 6 6 6 5 4 4 3 3 2 2 1 1 1 1 1 2 2 3 4 4
7 7 7 8 9 10 14 15 13 6 6 7 6 6 7 7 10 10 6 6 4 3 2 3 3 4 4 4 4 3 3 3 1 1 1 1 1 1 2 2 3 4 4
7 8 8 8 8 9 13 14 12 5 5 5 4 5 8 9 10 10 6 5 4 3 1 1 1 1 2 2 2 3 4 4 2 1 0 2 1 1 1 2 2 2 3
Wind_Direction
32 15 3 358 352 358 354 346 346 343 343 340 336 333 313 305 292 286 290 291 284 274 270 270 269 267 262 256 251 246 239 232 228 225 223 223 223 220 219 220 222 223 224
52 17 357 352 345 342 339 328 321 319 318 321 326 322 306 298 293 290 286 289 290 282 276 275 274 272 268 263 255 251 248 239 232 227 225 224 225 224 223 223 224 224 228
56 24 340 330 322 325 330 334 327 330 330 332 323 315 308 298 293 287 284 277 281 285 279 276 276 276 274 268 263 257 252 248 241 233 228 227 227 228 227 226 226 226 228
356 314 305 300 305 317 322 317 317 324 316 314 307 299 300 294 286 281 279 274 273 281 281 281 278 277 277 275 269 264 257 253 249 240 234 229 229 230 230 229 227 227 229
325 334 280 284 307 321 316 309 320 311 303 306 296 289 287 284 279 280 275 274 272 272 274 284 283 281 280 278 275 271 265 258 254 248 239 234 232 232 231 232 230 228 229
296 307 294 290 298 308 308 305 295 303 286 284 296 296 282 277 270 264 267 276 279 278 277 280 279 281 281 280 279 275 272 264 260 255 245 239 236 234 233 233 233 231 230
265 255 272 282 276 268 274 282 283 291 299 302 315 309 292 269 260 260 269 278 280 280 279 278 275 274 279 279 280 277 275 270 265 263 250 242 239 239 236 235 234 234 232
262 262 255 261 266 265 278 278 282 269 277 298 302 321 316 314 292 276 275 270 277 283 287 290 281 277 275 271 276 278 275 274 269 265 253 245 242 241 238 239 237 235 235
262 256 252 252 257 250 255 260 249 239 264 265 215 212 268 279 303 277 260 266 269 277 281 282 278 275 274 272 270 270 272 272 270 266 258 251 246 242 240 239 240 238 238
261 257 252 248 249 246 249 252 248 238 236 254 251 233 234 244 275 297 283 272 279 277 273 281 281 275 272 269 267 270 270 269 268 267 260 253 250 244 240 238 238 237 238
261 256 251 247 249 247 246 248 249 240 231 237 238 239 254 257 245 258 282 286 285 268 264 270 276 276 271 268 265 266 271 270 266 267 263 256 255 250 243 239 237 235 233
269 262 256 250 250 249 247 246 243 239 239 242 242 234 237 244 244 249 268 279 285 285 277 268 266 268 267 263 265 273 273 269 266 266 265 259 258 255 248 241 240 235 228
274 270 266 257 255 251 248 245 243 241 237 239 241 242 240 245 247 252 264 276 283 286 280 270 256 263 269 261 262 270 270 270 267 265 265 259 256 253 251 244 241 234 228
263 265 262 257 257 257 256 246 248 246 243 240 245 244 246 247 244 244 250 265 282 288 278 269 267 257 265 264 267 268 263 267 266 264 262 255 249 248 248 240 236 229 227
267 266 260 260 261 260 259 251 250 250 247 244 244 243 245 250 245 245 245 241 253 278 282 274 269 262 266 267 268 266 264 266 265 264 260 249 241 235 233 229 227 226 224
269 271 267 263 262 262 260 257 256 253 251 250 247 246 248 250 249 246 245 245 240 252 272 275 270 275 272 277 273 271 267 274 265 262 253 242 232 223 219 218 217 212 211
271 269 268 265 265 264 261 258 257 254 254 256 251 249 250 250 250 251 247 245 243 242 264 279 274 277 271 272 279 272 274 266 253 251 246 238 225 209 204 203 199 197 200
272 269 269 268 266 266 262 258 262 259 255 257 254 251 253 252 250 249 246 246 245 242 252 273 281 277 269 270 272 273 283 287 262 244 237 229 218 199 186 179 180 183 187
275 274 269 267 267 266 265 261 260 260 256 254 253 251 251 248 251 250 247 247 248 250 248 261 274 274 273 272 283 287 288 293 294 265 209 180 174 164 158 154 156 160 166
280 279 273 268 267 266 265 263 261 262 260 257 254 251 249 244 247 250 249 248 248 250 250 256 265 269 261 257 254 260 309 345 349 18 54 85 119 120 133 142 148 157 167
286 284 283 280 275 272 267 269 269 267 264 263 260 254 250 247 248 250 251 247 245 249 252 256 259 264 254 240 244 229 263 1 15 40 75 54 77 88 114 128 135 158 173
290 288 285 283 281 279 284 284 283 274 270 263 262 259 254 251 252 255 257 255 249 246 247 250 255 251 247 234 222 217 170 121 335 27 80 25 41 47 17 69 140 153 157
291 291 289 285 282 282 287 289 288 284 272 262 256 255 257 252 254 249 256 260 257 253 248 244 243 245 231 211 193 212 197 199 272 233 82 22 16 9 360 68 103 132 143
292 291 290 288 287 288 291 294 296 288 279 268 254 246 246 249 245 245 249 256 255 252 246 237 231 232 223 200 194 192 156 99 54 22 77 101 2 7 15 30 76 92 108
297 293 291 288 288 290 293 297 298 286 278 276 262 250 246 245 248 250 250 250 253 263 262 235 221 208 201 197 181 145 146 136 98 338 0 114 105 35 26 27 44 66 81
293 296 295 292 286 287 292 298 300 285 281 279 272 257 252 251 251 252 238 222 226 236 192 129 119 132 160 163 187 181 169 158 151 224 225 109 120 84 44 15 29 42 59